Location: Unspecified
(41.5000°N, 0.0000°E)
Time: 16:49:50
(UTC+00:00)

deb Explorer IX - Pass Details

Date: 17 June 2019
Orbit: 539 x 1112 km, 38.8° (Epoch: 21 July)

Event Time Altitude Azimuth Distance (km) Brightness Sun altitude
Rises 20:29:44 0° 279° (W) 3,766 ? -8.8°
Reaches altitude 10° 20:32:48 10° 271° (W) 2,734 ? -9.2°
Maximum altitude 20:38:37 34° 209° (SSW) 1,414 ? -10.0°
Enters shadow 20:43:06 13° 148° (SSE) 2,185 ? -10.6°
